Weather History for Sturgis, MI

Change the Weather History Date:

Saturday, December 15, 2012

  Actual Average (KHAI) Record (KHAI)
Temperature  
Mean Temperature 42 °F -  
Max Temperature 48 °F 37 °F 61 °F (1971)
Min Temperature 35 °F 21 °F -6 °F (1958)
Degree Days  
Heating Degree Days 24    
Moisture  
Dew Point 35 °F    
Average Humidity 81    
Maximum Humidity 100    
Minimum Humidity 65    
Precipitation  
Precipitation 0.00 in - - ()
Sea Level Pressure  
Sea Level Pressure 29.87 in    
Wind  
Wind Speed 9 mph (SSE)    
Max Wind Speed 16 mph    
Max Gust Speed 23 mph    
Visibility 8 miles    
Events Rain    
Averages and records for this station are not official NWS values.
T = Trace of Precipitation, MM = Missing Value Source: NWS Daily Summary

Daily Weather History Graph

Daily Weather History Graph

Search for Another Location

Airport:

Trip Planner

Search our weather history database for the weather conditions in past years. The results will help you decide how hot, cold, wet, or windy it might be!

Date:

Astronomy

Dec. 15, 2012 Rise Set
Actual Time 8:02 AM EST 5:11 PM EST
Civil Twilight 7:30 AM EST 5:43 PM EST
Nautical Twilight 6:55 AM EST 6:18 PM EST
Astronomical Twilight 6:21 AM EST 6:52 PM EST
Moon 9:53 AM EST (12/15) 8:17 PM EST (12/15)
Length of Visible Light 10h 12m
Length of Day
9h 09m
Waxing Crescent, 8% of the Moon is Illuminated
Dec 15
Waxing Crescent
Dec 20
First Quarter
Dec 28
Full
Jan 4
Last Quarter
Jan 11
New

Hourly Weather History & Observations

Time (EST) Temp. Windchill Dew Point Humidity Pressure Visibility Wind Dir Wind Speed Gust Speed Precip Events Conditions
12:15 AM 37.4 °F 32.8 °F 30.2 °F 75% 30.11 in 10.0 mi SE 5.8 mph - N/A   Clear
12:35 AM 37.4 °F 31.4 °F 28.4 °F 70% 30.10 in 10.0 mi SE 8.1 mph - N/A   Clear
12:54 AM 37.4 °F 31.4 °F 30.2 °F 75% 30.10 in 10.0 mi SE 8.1 mph - N/A   Clear
1:15 AM 37.4 °F 31.4 °F 30.2 °F 75% 30.09 in 10.0 mi SE 8.1 mph - N/A   Clear
1:35 AM 37.4 °F 32.1 °F 28.4 °F 70% 30.09 in 10.0 mi SE 6.9 mph - N/A   Clear
1:55 AM 37.4 °F 31.4 °F 28.4 °F 70% 30.09 in 10.0 mi SE 8.1 mph - N/A   Clear
2:15 AM 35.6 °F 29.2 °F 28.4 °F 75% 30.08 in 10.0 mi SE 8.1 mph - N/A   Clear
2:35 AM 35.6 °F 29.2 °F 30.2 °F 81% 30.08 in 10.0 mi SE 8.1 mph - N/A   Clear
2:54 AM 35.6 °F 28.6 °F 30.2 °F 81% 30.08 in 10.0 mi SE 9.2 mph - N/A   Clear
3:15 AM 37.4 °F 32.1 °F 30.2 °F 75% 30.07 in 10.0 mi SE 6.9 mph - N/A   Clear
3:35 AM 37.4 °F 31.4 °F 30.2 °F 75% 30.07 in 10.0 mi SE 8.1 mph - N/A   Clear
3:55 AM 37.4 °F 31.4 °F 30.2 °F 75% 30.07 in 10.0 mi SE 8.1 mph - N/A   Clear
4:15 AM 37.4 °F 30.8 °F 30.2 °F 75% 30.06 in 10.0 mi SE 9.2 mph - N/A   Clear
4:34 AM 37.4 °F 30.8 °F 30.2 °F 75% 30.06 in 10.0 mi SE 9.2 mph - N/A   Clear
4:55 AM 37.4 °F 31.4 °F 30.2 °F 75% 30.05 in 10.0 mi SE 8.1 mph - N/A   Clear
5:14 AM 37.4 °F 31.4 °F 30.2 °F 75% 30.06 in 10.0 mi SE 8.1 mph - N/A   Clear
5:35 AM 37.4 °F 32.1 °F 28.4 °F 70% 30.05 in 10.0 mi ESE 6.9 mph - N/A   Clear
5:55 AM 37.4 °F 31.4 °F 28.4 °F 70% 30.04 in 10.0 mi SE 8.1 mph - N/A   Clear
6:14 AM 37.4 °F 31.4 °F 28.4 °F 70% 30.04 in 10.0 mi ESE 8.1 mph - N/A   Clear
6:35 AM 37.4 °F 30.8 °F 28.4 °F 70% 30.04 in 10.0 mi SE 9.2 mph - N/A   Scattered Clouds
6:55 AM 37.4 °F 30.8 °F 28.4 °F 70% 30.04 in 10.0 mi ESE 9.2 mph - N/A   Scattered Clouds
7:15 AM 39.2 °F 33.6 °F 28.4 °F 65% 30.04 in 10.0 mi SSE 8.1 mph - N/A   Clear
7:35 AM 37.4 °F 30.8 °F 28.4 °F 70% 30.03 in 10.0 mi SE 9.2 mph - N/A   Clear
7:55 AM 37.4 °F 30.3 °F 28.4 °F 70% 30.03 in 10.0 mi SE 10.4 mph - N/A   Mostly Cloudy
8:15 AM 37.4 °F 29.8 °F 28.4 °F 70% 30.01 in 10.0 mi SE 11.5 mph - N/A   Scattered Clouds
8:35 AM 37.4 °F 29.8 °F 28.4 °F 70% 29.99 in 10.0 mi SE 11.5 mph - N/A   Clear
8:55 AM 37.4 °F 29.8 °F 28.4 °F 70% 29.99 in 10.0 mi SE 11.5 mph - N/A   Clear
9:15 AM 39.2 °F 31.6 °F 28.4 °F 65% 29.98 in 10.0 mi SE 12.7 mph 16.1 mph N/A   Clear
9:34 AM 39.2 °F 32.0 °F 28.4 °F 65% 29.98 in 10.0 mi SE 11.5 mph - N/A   Scattered Clouds
9:55 AM 39.2 °F 32.5 °F 28.4 °F 65% 29.96 in 10.0 mi SE 10.4 mph - N/A   Mostly Cloudy
10:15 AM 39.2 °F 31.6 °F 30.2 °F 70% 29.94 in 10.0 mi ESE 12.7 mph 17.3 mph N/A   Mostly Cloudy
10:34 AM 39.2 °F 32.5 °F 30.2 °F 70% 29.96 in 10.0 mi SSE 10.4 mph - N/A   Scattered Clouds
10:55 AM 41.0 °F 34.7 °F 30.2 °F 65% 29.96 in 10.0 mi SSE 10.4 mph 17.3 mph N/A   Scattered Clouds
11:14 AM 39.2 °F 32.5 °F 30.2 °F 70% 29.95 in 7.0 mi SSE 10.4 mph - N/A Rain Rain
11:35 AM 39.2 °F 32.0 °F 33.8 °F 81% 29.90 in 7.0 mi ESE 11.5 mph 17.3 mph N/A Rain Light Rain
11:55 AM 39.2 °F 30.8 °F 32.0 °F 75% 29.85 in 10.0 mi ESE 15.0 mph 21.9 mph N/A   Scattered Clouds
12:15 PM 39.2 °F 32.0 °F 33.8 °F 81% 29.83 in 10.0 mi ESE 11.5 mph 21.9 mph N/A Rain Light Rain
12:35 PM 42.8 °F 37.5 °F 33.8 °F 70% 29.84 in 10.0 mi SE 9.2 mph - N/A   Overcast
12:55 PM 42.8 °F 38.0 °F 33.8 °F 70% 29.84 in 10.0 mi SE 8.1 mph - N/A   Overcast
1:15 PM 42.8 °F 37.0 °F 35.6 °F 76% 29.82 in 7.0 mi SSE 10.4 mph - N/A Rain Rain
1:35 PM 41.0 °F 34.7 °F 35.6 °F 81% 29.82 in 5.0 mi SSE 10.4 mph - N/A Rain Light Rain
1:55 PM 41.0 °F 35.2 °F 37.4 °F 87% 29.81 in 5.0 mi SSE 9.2 mph - N/A Rain Light Rain
2:15 PM 42.8 °F 36.6 °F 37.4 °F 81% 29.79 in 3.0 mi SE 11.5 mph - N/A Rain Rain
2:35 PM 42.8 °F 36.6 °F 39.2 °F 87% 29.77 in 2.5 mi SE 11.5 mph 17.3 mph N/A Rain Rain
2:55 PM 42.8 °F 36.2 °F 39.2 °F 87% 29.75 in 3.0 mi SE 12.7 mph - N/A Rain Light Rain
3:15 PM 42.8 °F 36.6 °F 39.2 °F 87% 29.74 in 7.0 mi SE 11.5 mph 18.4 mph N/A   Overcast
3:35 PM 42.8 °F 35.8 °F 41.0 °F 93% 29.73 in 7.0 mi SSE 13.8 mph - N/A   Overcast
3:55 PM 42.8 °F 35.1 °F 39.2 °F 87% 29.73 in 7.0 mi SSE 16.1 mph 23.0 mph N/A   Overcast
4:15 PM 42.8 °F 35.8 °F 39.2 °F 87% 29.72 in 10.0 mi SSE 13.8 mph - N/A   Overcast
4:35 PM 42.8 °F 35.8 °F 41.0 °F 93% 29.72 in 10.0 mi SSE 13.8 mph 19.6 mph N/A   Overcast
4:55 PM 42.8 °F 36.6 °F 41.0 °F 93% 29.72 in 10.0 mi SSE 11.5 mph - N/A   Overcast
5:15 PM 42.8 °F 35.8 °F 41.0 °F 93% 29.71 in 10.0 mi SSE 13.8 mph 20.7 mph N/A   Overcast
5:35 PM 42.8 °F 35.4 °F 41.0 °F 93% 29.70 in 10.0 mi SSE 15.0 mph - N/A   Overcast
5:55 PM 44.6 °F 38.4 °F 41.0 °F 87% 29.69 in 10.0 mi South 12.7 mph 19.6 mph N/A   Overcast
6:15 PM 44.6 °F 37.8 °F 41.0 °F 87% 29.68 in 4.0 mi SSE 15.0 mph 21.9 mph N/A   Drizzle
6:35 PM 42.8 °F 35.4 °F 41.0 °F 93% 29.68 in 4.0 mi SSE 15.0 mph - N/A   Drizzle
6:55 PM 42.8 °F 35.4 °F 42.8 °F 100% 29.68 in 5.0 mi SSE 15.0 mph 19.6 mph N/A   Overcast
7:15 PM 44.6 °F 38.4 °F 42.8 °F 93% 29.68 in 5.0 mi South 12.7 mph 19.6 mph N/A   Drizzle
7:35 PM 44.6 °F 38.4 °F 42.8 °F 93% 29.67 in 4.0 mi SSE 12.7 mph - N/A   Drizzle
7:55 PM 44.6 °F 39.2 °F 42.8 °F 93% 29.67 in 4.0 mi South 10.4 mph 17.3 mph N/A Rain Rain
8:15 PM 44.6 °F 39.2 °F 42.8 °F 93% 29.66 in 5.0 mi South 10.4 mph 16.1 mph N/A Rain Rain
8:35 PM 44.6 °F 38.1 °F 44.6 °F 100% 29.66 in 5.0 mi South 13.8 mph - N/A Rain Light Rain
8:55 PM 44.6 °F 38.8 °F 44.6 °F 100% 29.65 in 5.0 mi South 11.5 mph 18.4 mph N/A Rain Rain
9:15 PM 46.4 °F 41.5 °F 44.6 °F 93% 29.65 in 4.0 mi South 10.4 mph - N/A Rain Rain
9:35 PM 46.4 °F 40.7 °F 44.6 °F 93% 29.65 in 3.0 mi South 12.7 mph 17.3 mph N/A   Heavy Drizzle
9:55 PM 46.4 °F 41.5 °F 44.6 °F 93% 29.64 in 3.0 mi South 10.4 mph - N/A Rain Heavy Rain
10:15 PM 46.4 °F 41.9 °F 44.6 °F 93% 29.64 in 4.0 mi SSW 9.2 mph - N/A   Light Drizzle
10:35 PM 46.4 °F 41.5 °F 46.4 °F 100% 29.65 in 4.0 mi SSW 10.4 mph - N/A Rain Light Rain
10:55 PM 46.4 °F 41.1 °F 46.4 °F 100% 29.64 in 5.0 mi SSW 11.5 mph - N/A   Overcast
11:15 PM 48.2 °F - 46.4 °F 93% 29.64 in 5.0 mi SSW 11.5 mph - N/A   Overcast
11:35 PM 48.2 °F - 46.4 °F 93% 29.64 in 5.0 mi SSW 10.4 mph 16.1 mph N/A   Overcast
11:55 PM 48.2 °F - 46.4 °F 93% 29.63 in 5.0 mi SSW 9.2 mph - N/A   Overcast